Waco, TX

1:45 AM CST on February 28, 2017 (GMT -0600)
Waco Regional

Weather History for KACT - January, 2013

Change the Weather History Date:

Saturday, January 5, 2013

  Actual Average Record
Temperature  
Mean Temperature 44 °F 47 °F  
Max Temperature 54 °F 57 °F 79 °F (1989)
Min Temperature 33 °F 36 °F 13 °F (1942)
Degree Days  
Heating Degree Days 21 19  
Month to date heating degree days 128 95  
Since 1 July heating degree days 869 947  
Cooling Degree Days 0 0  
Month to date cooling degree days 0 0  
Year to date cooling degree days 0 0  
Moisture  
Dew Point 38 °F    
Average Humidity 74    
Maximum Humidity 93    
Minimum Humidity 54    
Precipitation  
Precipitation 0.03 in 0.07 in 1.99 in (1932)
Month to date precipitation 0.11 0.36  
Year to date precipitation 0.11 0.36  
Snow  
Snow 0.00 in 0.00 in T in (1950)
Month to date snowfall 0.0 0.0  
Since 1 July snowfall 0.0 0.1  
Snow Depth 0.00 in    
Sea Level Pressure  
Sea Level Pressure 30.34 in    
Wind  
Wind Speed 5 mph (SW)    
Max Wind Speed 9 mph    
Max Gust Speed 21 mph    
Visibility 7 miles    
Events Rain    
T = Trace of Precipitation, MM = Missing Value Source: NWS Daily Summary

Daily Weather History Graph

Daily Weather History Graph

Search for Another Location

Airport or City:

Trip Planner

Search our weather history database for the weather conditions in past years. The results will help you decide how hot, cold, wet, or windy it might be!

Date:

Astronomy

Jan. 05, 2013 Rise Set
Actual Time 7:29 AM CST 5:39 PM CST
Civil Twilight 7:02 AM CST 6:06 PM CST
Nautical Twilight 6:32 AM CST 6:36 PM CST
Astronomical Twilight 6:02 AM CST 7:06 PM CST
Moon 12:49 AM CST (1/5) 12:19 PM CST (1/5)
Length of Visible Light 11h 03m
Length of Day
10h 10m
Last Quarter, 44% of the Moon is Illuminated
Jan 5
Last Quarter
Jan 11
New
Jan 18
First Quarter
Jan 26
Full
Feb 3
Last Quarter

Hourly Weather History & Observations

Time (CST) Temp. Windchill Dew Point Humidity Pressure Visibility Wind Dir Wind Speed Gust Speed Precip Events Conditions
12:29 AM 41.0 °F 37.1 °F 39.2 °F 93% 30.40 in 2.5 mi WSW 5.8 mph - 0.01 in Rain Light Rain
12:48 AM 41.0 °F - 39.2 °F 93% 30.39 in 2.5 mi Calm Calm - 0.02 in Rain Light Rain
12:51 AM 41.0 °F - 39.0 °F 93% 30.39 in 2.5 mi Calm Calm - 0.02 in Rain Light Rain
12:59 AM 41.0 °F 39.0 °F 39.2 °F 93% 30.38 in 3.0 mi West 3.5 mph - 0.00 in Rain Light Rain
1:01 AM 41.0 °F - 39.2 °F 93% 30.38 in 3.0 mi Calm Calm - 0.00 in Rain Light Rain
1:27 AM 41.0 °F 39.0 °F 39.2 °F 93% 30.38 in 4.0 mi WSW 3.5 mph - 0.00 in   Overcast
1:51 AM 41.0 °F 39.0 °F 39.0 °F 93% 30.39 in 4.0 mi WSW 3.5 mph - 0.00 in Rain Light Rain
2:43 AM 41.0 °F 39.0 °F 39.2 °F 93% 30.38 in 2.0 mi WSW 3.5 mph - 0.00 in Rain Light Rain
2:48 AM 41.0 °F 39.0 °F 39.2 °F 93% 30.38 in 1.8 mi WSW 3.5 mph - 0.00 in Rain Light Rain
2:51 AM 41.0 °F - 39.2 °F 93% 30.38 in 1.8 mi Calm Calm - N/A Rain Light Rain
2:57 AM 41.0 °F 39.0 °F 39.2 °F 93% 30.38 in 2.0 mi WSW 3.5 mph - 0.00 in Rain Light Rain
3:02 AM 41.0 °F - 39.2 °F 93% 30.38 in 2.0 mi Calm Calm - 0.00 in Rain Light Rain
3:35 AM 41.0 °F - 39.2 °F 93% 30.38 in 3.0 mi Calm Calm - 0.01 in   Overcast
3:43 AM 41.0 °F - 39.2 °F 93% 30.38 in 4.0 mi Calm Calm - 0.01 in   Overcast
3:51 AM 41.0 °F 39.0 °F 39.2 °F 93% 30.37 in 4.0 mi SW 3.5 mph - N/A   Overcast
4:07 AM 41.0 °F - 39.2 °F 93% 30.37 in 4.0 mi Calm Calm - N/A   Overcast
4:51 AM 41.0 °F - 39.0 °F 93% 30.36 in 7.0 mi Calm Calm - N/A   Overcast
5:51 AM 41.0 °F 36.4 °F 37.4 °F 87% 30.34 in 10.0 mi South 6.9 mph - N/A   Overcast
6:51 AM 41.0 °F 39.0 °F 37.9 °F 89% 30.35 in 10.0 mi WSW 3.5 mph - N/A   Overcast
7:51 AM 37.4 °F 34.9 °F 35.6 °F 93% 30.36 in 6.0 mi NW 3.5 mph - N/A   Mostly Cloudy
8:51 AM 42.8 °F 39.3 °F 39.2 °F 87% 30.37 in 10.0 mi West 5.8 mph - N/A   Clear
9:05 AM 42.8 °F 39.3 °F 39.2 °F 87% 30.37 in 10.0 mi West 5.8 mph - N/A   Scattered Clouds
9:51 AM 43.0 °F 39.5 °F 39.0 °F 86% 30.38 in 10.0 mi West 5.8 mph - N/A   Mostly Cloudy
9:55 AM 44.6 °F 40.2 °F 41.0 °F 87% 30.38 in 10.0 mi West 8.1 mph - N/A   Scattered Clouds
9:57 AM 42.8 °F 39.3 °F 39.2 °F 87% 30.38 in 10.0 mi West 5.8 mph - N/A   Scattered Clouds
10:04 AM 42.8 °F 38.6 °F 39.2 °F 87% 30.38 in 10.0 mi WSW 6.9 mph - N/A   Mostly Cloudy
10:51 AM 46.0 °F 43.1 °F 39.0 °F 76% 30.37 in 10.0 mi West 5.8 mph - N/A   Overcast
11:31 AM 48.2 °F - 39.2 °F 71% 30.34 in 10.0 mi WNW 6.9 mph - N/A   Mostly Cloudy
11:51 AM 46.9 °F - 39.0 °F 74% 30.33 in 10.0 mi West 5.8 mph - N/A   Overcast
12:14 PM 48.2 °F - 37.4 °F 66% 30.31 in 10.0 mi SSW 5.8 mph - N/A   Scattered Clouds
12:51 PM 48.9 °F - 39.0 °F 69% 30.29 in 10.0 mi South 5.8 mph - N/A   Scattered Clouds
1:20 PM 51.8 °F - 39.2 °F 62% 30.27 in 10.0 mi Variable 3.5 mph - N/A   Mostly Cloudy
1:27 PM 50.0 °F - 39.2 °F 66% 30.27 in 10.0 mi SSW 6.9 mph - N/A   Scattered Clouds
1:51 PM 52.0 °F - 39.0 °F 61% 30.26 in 10.0 mi Variable 4.6 mph - N/A   Partly Cloudy
2:51 PM 53.1 °F - 37.9 °F 57% 30.24 in 10.0 mi SSW 5.8 mph - N/A   Partly Cloudy
3:51 PM 52.0 °F - 37.9 °F 59% 30.23 in 10.0 mi SSE 6.9 mph - N/A   Clear
4:51 PM 52.0 °F - 37.9 °F 59% 30.24 in 10.0 mi SSE 6.9 mph - N/A   Clear
5:51 PM 46.9 °F - 37.0 °F 68% 30.25 in 10.0 mi SSE 8.1 mph - N/A   Clear
6:51 PM 44.1 °F 41.5 °F 36.0 °F 73% 30.26 in 10.0 mi SSE 4.6 mph - N/A   Clear
7:51 PM 42.1 °F 38.4 °F 36.0 °F 79% 30.27 in 10.0 mi SSE 5.8 mph - N/A   Clear
8:51 PM 43.0 °F 38.8 °F 37.0 °F 80% 30.27 in 10.0 mi SSE 6.9 mph - N/A   Clear
9:51 PM 39.0 °F 35.7 °F 36.0 °F 89% 30.28 in 10.0 mi SW 4.6 mph - N/A   Clear
10:51 PM 35.6 °F 31.7 °F 33.8 °F 93% 30.30 in 7.0 mi SW 4.6 mph - N/A   Clear
11:51 PM 36.0 °F 31.1 °F 34.0 °F 93% 30.31 in 6.0 mi SSW 5.8 mph - N/A   Clear